Weather History for KSWF - April, 2013

Change the Weather History Date:

Monday, April 1, 2013

  Actual Average Record
Temperature  
Mean Temperature 45 °F -  
Max Temperature 57 °F 50 °F 76 °F (1979)
Min Temperature 33 °F 32 °F 19 °F (1984)
Degree Days  
Heating Degree Days 20    
Moisture  
Dew Point 34 °F    
Average Humidity 73    
Maximum Humidity 100    
Minimum Humidity 36    
Precipitation  
Precipitation 0.00 in - - ()
Sea Level Pressure  
Sea Level Pressure 29.71 in    
Wind  
Wind Speed 8 mph (WNW)    
Max Wind Speed 21 mph    
Max Gust Speed 32 mph    
Visibility 10 miles    
Events Rain    
Averages and records for this station are not official NWS values.
T = Trace of Precipitation, MM = Missing Value Source: NWS Daily Summary

Daily Weather History Graph

Daily Weather History Graph

Search for Another Location

Airport or City:

Trip Planner

Search our weather history database for the weather conditions in past years. The results will help you decide how hot, cold, wet, or windy it might be!

Date:

Astronomy

Apr. 01, 2013 Rise Set
Actual Time 6:39 AM EDT 7:21 PM EDT
Civil Twilight 6:11 AM EDT 7:49 PM EDT
Nautical Twilight 5:38 AM EDT 8:23 PM EDT
Astronomical Twilight 5:03 AM EDT 8:57 PM EDT
Moon 12:30 AM EDT (4/1) 10:19 AM EDT (4/1)
Length of Visible Light 13h 38m
Length of Day
12h 42m
Waning Gibbous, 67% of the Moon is Illuminated
Apr 1
Waning Gibbous
Apr 3
Last Quarter
Apr 10
New
Apr 18
First Quarter
Apr 25
Full

Hourly Weather History & Observations

Time (EDT) Temp. Windchill Dew Point Humidity Pressure Visibility Wind Dir Wind Speed Gust Speed Precip Events Conditions
12:45 AM 42.8 °F 39.3 °F 42.8 °F 100% 29.68 in 3.0 mi NNW 5.8 mph - N/A Rain Light Rain
1:45 AM 42.8 °F - 41.0 °F 93% 29.67 in 3.0 mi Calm Calm - N/A   Overcast
2:45 AM 42.8 °F - 41.0 °F 93% 29.66 in 3.0 mi Calm Calm - N/A   Overcast
3:45 AM 42.8 °F 38.6 °F 41.0 °F 93% 29.67 in 3.0 mi WSW 6.9 mph - N/A   Overcast
4:45 AM 42.8 °F 39.3 °F 41.0 °F 93% 29.68 in 5.0 mi North 5.8 mph - N/A   Overcast
6:45 AM 41.0 °F 34.3 °F 41.0 °F 100% 29.68 in 10.0 mi West 11.5 mph - N/A   Scattered Clouds
7:45 AM 42.8 °F - 41.0 °F 93% 29.69 in 10.0 mi Calm Calm - N/A   Scattered Clouds
8:45 AM 44.6 °F - 41.0 °F 87% 29.68 in 10.0 mi Calm Calm - N/A   Scattered Clouds
9:45 AM 46.4 °F 42.4 °F 42.8 °F 87% 29.66 in 15.0 mi WSW 8.1 mph - N/A   Scattered Clouds
10:45 AM 50.0 °F - 44.6 °F 82% 29.64 in 15.0 mi WSW 11.5 mph - N/A   Scattered Clouds
11:45 AM 53.6 °F - 44.6 °F 72% 29.63 in 15.0 mi West 11.5 mph 21.9 mph N/A   Scattered Clouds
12:45 PM 57.2 °F - 42.8 °F 59% 29.61 in 15.0 mi West 17.3 mph 24.2 mph N/A   Mostly Cloudy
1:45 PM 50.0 °F - 39.2 °F 66% 29.64 in 15.0 mi WNW 16.1 mph 27.6 mph N/A   Mostly Cloudy
4:50 PM 46.4 °F 39.5 °F 30.2 °F 53% 29.72 in 15.0 mi WNW 17.3 mph 25.3 mph N/A   Mostly Cloudy
6:50 PM 42.8 °F 34.0 °F 21.2 °F 42% 29.76 in 20.0 mi NW 20.7 mph 32.2 mph N/A   Partly Cloudy
7:50 PM 39.2 °F 31.2 °F 15.8 °F 39% 29.80 in 10.0 mi NW 13.8 mph 23.0 mph N/A   Clear
8:50 PM 37.4 °F 28.9 °F 12.2 °F 36% 29.84 in 10.0 mi NW 13.8 mph 23.0 mph N/A   Clear
10:45 PM 33.8 °F 24.3 °F 14.0 °F 44% 29.89 in 10.0 mi NW 13.8 mph 23.0 mph N/A   Clear
11:45 PM 33.8 °F 24.3 °F 15.8 °F 48% 29.90 in 10.0 mi WNW 13.8 mph 23.0 mph N/A   Clear